When you browse on this site, cookies collect data to enhance your experience and personalize the content and advertising you see.
Visit our Privacy Policy to learn more. By continuing to use the site, you agree to this use of cookies and data.
  • In Lithuania
  • List of Countries
  • For 7 days
  • Water Temperature
  • Satellite Maps
  • Weather Map
  • Weather Widgets
  • user-avatar
    Login

    Hourly Weather Soldatskoe

    Today, 21 May, Tuesday

    Time Temperature Precipitation Wind Pressure Humidity
    00:00 +13°C° 0 mm 1 mps 753 mmHg 72%
    01:00 +13°C° 0 mm 1 mps 753 mmHg 72%
    02:00 +12°C° 0 mm 1 mps 753 mmHg 72%
    03:00 +12°C° 0 mm 1 mps 753 mmHg 73%
    04:00 +12°C° 0 mm 1 mps 753 mmHg 73%
    05:00 +13°C° 0 mm 1 mps 753 mmHg 73%
    06:00 +13°C° 0 mm 1 mps 754 mmHg 73%
    07:00 +15°C° 0 mm 1 mps 754 mmHg 67%
    08:00 +17°C° 0 mm 2 mps 754 mmHg 61%
    09:00 +18°C° 0 mm 2 mps 754 mmHg 56%
    10:00 +19°C° 0 mm 3 mps 754 mmHg 52%
    11:00 +20°C° 0 mm 3 mps 754 mmHg 49%
    12:00 +21°C° 0 mm 4 mps 753 mmHg 46%
    13:00 +22°C° 0 mm 4 mps 753 mmHg 46%
    14:00 +22°C° 0 mm 4 mps 753 mmHg 46%
    15:00 +23°C° 0 mm 4 mps 753 mmHg 46%
    16:00 +22°C° 0 mm 3 mps 752 mmHg 51%
    17:00 +22°C° 0 mm 3 mps 752 mmHg 56%
    18:00 +23°C° 0 mm 2 mps 751 mmHg 60%
    19:00 +20°C° 0 mm 2 mps 751 mmHg 64%
    20:00 +18°C° 0 mm 3 mps 751 mmHg 67%
    21:00 +16°C° 0 mm 3 mps 751 mmHg 71%
    22:00 +14°C° 0 mm 3 mps 751 mmHg 72%
    23:00 +14°C° 0 mm 3 mps 751 mmHg 72%

    Tomorrow, 22 May, Wednesday

    Time Temperature Precipitation Wind Pressure Humidity
    00:00 +13°C° 0 mm 3 mps 751 mmHg 73%
    01:00 +13°C° 0 mm 3 mps 751 mmHg 74%
    02:00 +13°C° 0 mm 3 mps 750 mmHg 75%
    03:00 +12°C° 0 mm 3 mps 750 mmHg 77%
    04:00 +13°C° 0 mm 3 mps 750 mmHg 77%
    05:00 +14°C° 0 mm 2 mps 750 mmHg 78%
    06:00 +15°C° 0 mm 2 mps 750 mmHg 78%
    07:00 +16°C° 0 mm 3 mps 749 mmHg 74%
    08:00 +17°C° 0 mm 3 mps 749 mmHg 70%
    09:00 +19°C° 0 mm 4 mps 749 mmHg 65%
    10:00 +20°C° 0 mm 4 mps 749 mmHg 62%
    11:00 +21°C° 0 mm 5 mps 749 mmHg 58%
    12:00 +22°C° 0 mm 5 mps 749 mmHg 55%
    13:00 +22°C° 0 mm 5 mps 748 mmHg 54%
    14:00 +23°C° 0 mm 5 mps 748 mmHg 52%
    15:00 +23°C° 0 mm 5 mps 747 mmHg 51%
    16:00 +23°C° 0 mm 5 mps 747 mmHg 54%
    17:00 +22°C° 0 mm 4 mps 746 mmHg 58%
    18:00 +22°C° 0 mm 3 mps 746 mmHg 61%
    19:00 +20°C° 0 mm 3 mps 746 mmHg 65%
    20:00 +18°C° 0 mm 3 mps 746 mmHg 69%
    21:00 +16°C° 0 mm 3 mps 746 mmHg 73%
    22:00 +14°C° 0 mm 3 mps 746 mmHg 73%
    23:00 +14°C° 0 mm 3 mps 745 mmHg 73%

    Day after tomorrow, 23 May, Thursday

    Time Temperature Precipitation Wind Pressure Humidity
    00:00 +13°C° 0 mm 3 mps 745 mmHg 73%
    01:00 +13°C° 0 mm 2 mps 745 mmHg 74%
    02:00 +13°C° 0 mm 2 mps 745 mmHg 74%
    03:00 +12°C° 0 mm 2 mps 745 mmHg 74%
    04:00 +13°C° 0 mm 2 mps 745 mmHg 75%
    05:00 +13°C° 0 mm 2 mps 744 mmHg 76%
    06:00 +14°C° 0 mm 1 mps 744 mmHg 76%
    07:00 +15°C° 0 mm 2 mps 744 mmHg 71%
    08:00 +17°C° 0 mm 2 mps 744 mmHg 66%
    09:00 +19°C° 0 mm 2 mps 744 mmHg 60%
    10:00 +20°C° 0 mm 2 mps 744 mmHg 58%
    11:00 +23°C° 0 mm 2 mps 744 mmHg 55%
    12:00 +24°C° 0 mm 2 mps 744 mmHg 53%
    13:00 +24°C° 0 mm 2 mps 744 mmHg 53%
    14:00 +25°C° 0 mm 3 mps 744 mmHg 53%
    15:00 +26°C° 0 mm 3 mps 743 mmHg 54%
    16:00 +25°C° 0.4 mm 3 mps 743 mmHg 59%
    17:00 +25°C° 0.4 mm 2 mps 743 mmHg 63%
    18:00 +25°C° 0.4 mm 2 mps 743 mmHg 68%
    19:00 +23°C° 0 mm 2 mps 743 mmHg 74%
    20:00 +20°C° 0 mm 3 mps 744 mmHg 79%
    21:00 +19°C° 0 mm 3 mps 744 mmHg 84%
    22:00 +18°C° 0.7 mm 3 mps 744 mmHg 87%
    23:00 +18°C° 0.7 mm 2 mps 744 mmHg 89%

    24 May, Friday

    Time Temperature Precipitation Wind Pressure Humidity
    00:00 +17°C° 0.7 mm 2 mps 744 mmHg 91%
    01:00 +17°C° 0 mm 2 mps 744 mmHg 92%
    02:00 +16°C° 0 mm 2 mps 744 mmHg 92%
    03:00 +16°C° 0 mm 2 mps 744 mmHg 93%
    04:00 +16°C° 0 mm 2 mps 744 mmHg 92%
    05:00 +17°C° 0 mm 2 mps 744 mmHg 92%
    06:00 +17°C° 0 mm 2 mps 744 mmHg 91%
    07:00 +18°C° 0 mm 2 mps 745 mmHg 85%
    08:00 +20°C° 0 mm 2 mps 745 mmHg 79%
    09:00 +23°C° 0 mm 2 mps 745 mmHg 74%
    10:00 +24°C° 0 mm 2 mps 745 mmHg 68%
    11:00 +25°C° 0 mm 3 mps 745 mmHg 63%
    12:00 +26°C° 0 mm 3 mps 745 mmHg 57%
    13:00 +26°C° 0 mm 3 mps 745 mmHg 55%
    14:00 +27°C° 0 mm 3 mps 744 mmHg 54%
    15:00 +27°C° 0 mm 3 mps 744 mmHg 52%
    16:00 +26°C° 0.8 mm 3 mps 744 mmHg 58%
    17:00 +26°C° 0.8 mm 2 mps 744 mmHg 63%
    18:00 +25°C° 0.8 mm 2 mps 744 mmHg 69%
    19:00 +23°C° 0.2 mm 2 mps 744 mmHg 73%
    20:00 +21°C° 0.2 mm 2 mps 744 mmHg 76%
    21:00 +19°C° 0.2 mm 2 mps 744 mmHg 80%
    22:00 +18°C° 0 mm 2 mps 744 mmHg 81%
    23:00 +18°C° 0 mm 2 mps 744 mmHg 82%

    25 May, Saturday

    Time Temperature Precipitation Wind Pressure Humidity
    00:00 +17°C° 0 mm 2 mps 744 mmHg 83%
    01:00 +17°C° 0 mm 2 mps 744 mmHg 84%
    02:00 +16°C° 0 mm 2 mps 744 mmHg 85%
    03:00 +16°C° 0 mm 2 mps 744 mmHg 86%
    04:00 +18°C° 0.3 mm 1 mps 744 mmHg 86%
    05:00 +18°C° 0.3 mm 1 mps 744 mmHg 86%
    06:00 +18°C° 0.3 mm 1 mps 744 mmHg 86%
    07:00 +19°C° 0.4 mm 2 mps 743 mmHg 80%
    08:00 +21°C° 0.4 mm 2 mps 743 mmHg 74%
    09:00 +24°C° 0.4 mm 3 mps 743 mmHg 68%
    10:00 +24°C° 0.2 mm 3 mps 743 mmHg 65%
    11:00 +25°C° 0.2 mm 4 mps 743 mmHg 62%
    12:00 +26°C° 0.2 mm 4 mps 743 mmHg 58%
    13:00 +25°C° 0.4 mm 4 mps 742 mmHg 59%
    14:00 +25°C° 0.4 mm 4 mps 742 mmHg 60%
    15:00 +25°C° 0.4 mm 4 mps 742 mmHg 62%
    16:00 +22°C° 0.4 mm 4 mps 742 mmHg 69%
    17:00 +20°C° 0.4 mm 4 mps 741 mmHg 76%
    18:00 +19°C° 0.4 mm 3 mps 741 mmHg 84%
    19:00 +18°C° 0.1 mm 3 mps 741 mmHg 85%
    20:00 +17°C° 0.1 mm 2 mps 741 mmHg 86%
    21:00 +16°C° 0.1 mm 1 mps 741 mmHg 87%
    22:00 +16°C° 0.2 mm 1 mps 741 mmHg 89%
    23:00 +16°C° 0.2 mm 1 mps 740 mmHg 91%

    26 May, Sunday

    Time Temperature Precipitation Wind Pressure Humidity
    00:00 +16°C° 0.2 mm 1 mps 740 mmHg 94%
    01:00 +15°C° 0 mm 1 mps 740 mmHg 94%
    02:00 +14°C° 0 mm 0 mps 740 mmHg 94%
    03:00 +14°C° 0 mm 0 mps 740 mmHg 94%
    04:00 +15°C° 0.3 mm 1 mps 739 mmHg 94%
    05:00 +16°C° 0.3 mm 1 mps 739 mmHg 93%
    06:00 +16°C° 0.3 mm 2 mps 739 mmHg 93%
    07:00 +16°C° 0.4 mm 2 mps 740 mmHg 92%
    08:00 +17°C° 0.4 mm 2 mps 740 mmHg 91%
    09:00 +18°C° 0.4 mm 2 mps 740 mmHg 90%
    10:00 +18°C° 0.7 mm 3 mps 740 mmHg 87%
    11:00 +19°C° 0.7 mm 4 mps 740 mmHg 84%
    12:00 +20°C° 0.7 mm 5 mps 740 mmHg 81%
    13:00 +20°C° 0.3 mm 5 mps 741 mmHg 79%
    14:00 +20°C° 0.3 mm 6 mps 741 mmHg 77%
    15:00 +20°C° 0.3 mm 6 mps 741 mmHg 75%
    16:00 +21°C° 0 mm 5 mps 742 mmHg 73%
    17:00 +21°C° 0 mm 5 mps 742 mmHg 71%
    18:00 +22°C° 0 mm 4 mps 742 mmHg 69%
    19:00 +20°C° 0 mm 4 mps 743 mmHg 74%
    20:00 +19°C° 0 mm 3 mps 743 mmHg 78%
    21:00 +17°C° 0 mm 3 mps 744 mmHg 83%
    22:00 +16°C° 0 mm 3 mps 744 mmHg 86%
    23:00 +16°C° 0 mm 3 mps 744 mmHg 88%
    Show more